User: anonymous
Location: Caltech
(34.1382°N, 118.1253°W)
Time: 05:18:29
(UTC-07:00)
Language:

ERBS - Orbit

View from above orbital plane
View from above orbital plane
View from above satellite
View from above satellite

Ground track
Ground track

The orbit data is extracted from the following two-line orbital elements,

1 15354U 84108B   14265.00992115  .00006575  00000-0  23735-3 0  5930
2 15354 057.0117 086.1541 0018623 033.7252 326.4978 15.29580812644439
Epoch (UTC): 22 September 2014 00:14:17
Eccentricity: 0.0018623
inclination: 57.0117°
perigee height: 464 km
apogee height: 490 km
right ascension of ascending node: 86.1541°
argument of perigee: 33.7252°
revolutions per day: 15.29580812
mean anomaly at epoch: 326.4978°
orbit number at epoch: 64443

The dashed part of the orbit path shows where the satellite is in the earth's shadow,  

DLR